Weather History for Newton, KS

Change the Weather History Date:

Thursday, April 24, 2014

  Actual Average Record
Temperature  
Mean Temperature 58 °F -  
Max Temperature 68 °F 64 °F 86 °F (2012)
Min Temperature 48 °F 45 °F 24 °F (2013)
Degree Days  
Heating Degree Days 7    
Growing Degree Days 8 (Base 50)    
Moisture  
Dew Point 44 °F    
Average Humidity 59    
Maximum Humidity 82    
Minimum Humidity 32    
Precipitation  
Precipitation 0.12 in - - ()
Sea Level Pressure  
Sea Level Pressure 29.77 in    
Wind  
Wind Speed 18 mph (NW)    
Max Wind Speed 31 mph    
Max Gust Speed 38 mph    
Visibility 10 miles    
Events Thunderstorm    
Averages and records for this station are not official NWS values.
T = Trace of Precipitation, MM = Missing Value Source: NWS Daily Summary

Daily Weather History Graph

Daily Weather History Graph

Search for Another Location

Airport:

Trip Planner

Search our weather history database for the weather conditions in past years. The results will help you decide how hot, cold, wet, or windy it might be!

Date:

Astronomy

Apr. 24, 2014 Rise Set
Actual Time 6:41 AM CDT 8:13 PM CDT
Civil Twilight 6:13 AM CDT 8:41 PM CDT
Nautical Twilight 5:40 AM CDT 9:15 PM CDT
Astronomical Twilight 5:04 AM CDT 9:50 PM CDT
Moon 3:48 AM CDT (4/24) 3:35 PM CDT (4/24)
Length of Visible Light 14h 27m
Length of Day
13h 32m
Waning Crescent, 24% of the Moon is Illuminated
Apr 24
Waning Crescent
Apr 29
New
May 6
First Quarter
May 14
Full
May 21
Last Quarter

Hourly Weather History & Observations

Time (CDT) Temp. Dew Point Humidity Pressure Visibility Wind Dir Wind Speed Gust Speed Precip Events Conditions
12:15 AM 68.0 °F 51.8 °F 56% 29.62 in 6.0 mi SSW 13.8 mph 21.9 mph N/A   Clear
12:35 AM 66.2 °F 48.2 °F 52% 29.61 in 10.0 mi South 20.7 mph 33.4 mph N/A   Clear
12:55 AM 66.2 °F 48.2 °F 52% 29.60 in 10.0 mi South 18.4 mph - N/A   Clear
1:15 AM 66.2 °F 48.2 °F 52% 29.60 in 10.0 mi South 25.3 mph 31.1 mph N/A   Clear
1:35 AM 66.2 °F 48.2 °F 52% 29.60 in 10.0 mi South 31.1 mph 38.0 mph N/A   Clear
1:55 AM 66.2 °F 51.8 °F 60% 29.61 in 10.0 mi South 25.3 mph 36.8 mph N/A   Clear
2:15 AM 66.2 °F 51.8 °F 60% 29.61 in 10.0 mi South 24.2 mph 35.7 mph N/A   Clear
2:35 AM 66.2 °F 51.8 °F 60% 29.61 in 10.0 mi South 24.2 mph 29.9 mph N/A   Clear
2:55 AM 66.2 °F 51.8 °F 60% 29.60 in 10.0 mi South 23.0 mph 29.9 mph N/A   Clear
3:15 AM 66.2 °F 53.6 °F 64% 29.61 in 10.0 mi South 17.3 mph 29.9 mph N/A   Clear
3:35 AM 64.4 °F 53.6 °F 68% 29.61 in 10.0 mi South 19.6 mph 25.3 mph N/A   Scattered Clouds
3:55 AM 66.2 °F 53.6 °F 64% 29.61 in 10.0 mi South 18.4 mph 25.3 mph N/A   Overcast
4:15 AM 66.2 °F 53.6 °F 64% 29.62 in 10.0 mi South 23.0 mph 28.8 mph N/A   Overcast
4:35 AM 66.2 °F 53.6 °F 64% 29.63 in 10.0 mi SSW 28.8 mph - N/A   Overcast
4:55 AM 66.2 °F 53.6 °F 64% 29.68 in 10.0 mi West 19.6 mph 27.6 mph N/A   Overcast
5:15 AM 64.4 °F 55.4 °F 73% 29.67 in 10.0 mi WNW 12.7 mph 24.2 mph 0.01 in   Overcast
5:35 AM 57.2 °F 51.8 °F 82% 29.68 in 10.0 mi North 19.6 mph - 0.03 in Thunderstorm Overcast
5:55 AM 57.2 °F 50.0 °F 77% 29.67 in 10.0 mi North 15.0 mph - 0.05 in   Overcast
6:15 AM 55.4 °F 50.0 °F 82% 29.68 in 10.0 mi North 10.4 mph - 0.02 in   Overcast
6:35 AM 55.4 °F 50.0 °F 82% 29.68 in 10.0 mi NNE 8.1 mph - 0.02 in Thunderstorm Overcast
6:55 AM 55.4 °F 50.0 °F 82% 29.68 in 10.0 mi North 12.7 mph - 0.02 in   Overcast
7:15 AM 55.4 °F 50.0 °F 82% 29.70 in 10.0 mi NNW 12.7 mph - N/A   Overcast
7:35 AM 55.4 °F 50.0 °F 82% 29.70 in 9.0 mi North 12.7 mph - N/A   Overcast
7:55 AM 55.4 °F 50.0 °F 82% 29.70 in 10.0 mi North 13.8 mph - N/A   Overcast
8:15 AM 55.4 °F 50.0 °F 82% 29.70 in 9.0 mi NNW 16.1 mph - N/A   Overcast
8:35 AM 53.6 °F 48.2 °F 82% 29.71 in 10.0 mi NNW 16.1 mph 23.0 mph N/A   Overcast
8:55 AM 53.6 °F 48.2 °F 82% 29.73 in 10.0 mi NW 13.8 mph 18.4 mph N/A   Overcast
9:15 AM 53.6 °F 46.4 °F 77% 29.78 in 10.0 mi WNW 21.9 mph 27.6 mph N/A Thunderstorm Thunderstorm
9:35 AM 51.8 °F 46.4 °F 82% 29.71 in 9.0 mi NNE 19.6 mph 27.6 mph 0.03 in Thunderstorm Thunderstorm
9:55 AM 53.6 °F 46.4 °F 77% 29.71 in 10.0 mi NNW 13.8 mph 24.2 mph 0.03 in   Mostly Cloudy
10:15 AM 53.6 °F 48.2 °F 82% 29.74 in 10.0 mi NW 18.4 mph 21.9 mph N/A   Overcast
10:35 AM 53.6 °F 46.4 °F 77% 29.76 in 10.0 mi NW 19.6 mph 26.5 mph N/A   Overcast
10:55 AM 53.6 °F 46.4 °F 77% 29.78 in 10.0 mi NW 23.0 mph 27.6 mph N/A   Overcast
11:15 AM 53.6 °F 44.6 °F 72% 29.78 in 10.0 mi NW 21.9 mph 33.4 mph N/A   Overcast
11:35 AM 53.6 °F 44.6 °F 72% 29.79 in 10.0 mi NNW 20.7 mph 31.1 mph N/A   Overcast
11:55 AM 53.6 °F 44.6 °F 72% 29.79 in 10.0 mi NW 23.0 mph 28.8 mph N/A   Overcast
12:15 PM 55.4 °F 44.6 °F 67% 29.79 in 10.0 mi NW 26.5 mph 33.4 mph N/A   Overcast
12:35 PM 55.4 °F 42.8 °F 63% 29.80 in 10.0 mi NNW 24.2 mph 33.4 mph N/A   Overcast
12:55 PM 57.2 °F 42.8 °F 59% 29.80 in 10.0 mi NNW 25.3 mph 34.5 mph N/A   Overcast
1:15 PM 57.2 °F 42.8 °F 59% 29.80 in 10.0 mi NNW 24.2 mph 38.0 mph N/A   Overcast
1:35 PM 57.2 °F 42.8 °F 59% 29.81 in 10.0 mi NNW 26.5 mph 33.4 mph N/A   Overcast
1:55 PM 57.2 °F 42.8 °F 59% 29.82 in 10.0 mi NW 24.2 mph 31.1 mph N/A   Overcast
2:15 PM 60.8 °F 41.0 °F 48% 29.82 in 10.0 mi NNW 24.2 mph 33.4 mph N/A   Mostly Cloudy
2:35 PM 62.6 °F 41.0 °F 45% 29.83 in 10.0 mi NNW 19.6 mph 29.9 mph N/A   Partly Cloudy
2:55 PM 59.0 °F 37.4 °F 45% 29.83 in 10.0 mi NNW 25.3 mph 34.5 mph N/A   Partly Cloudy
3:15 PM 59.0 °F 37.4 °F 45% 29.84 in 10.0 mi NNW 20.7 mph 27.6 mph N/A   Partly Cloudy
3:35 PM 55.4 °F 39.2 °F 54% 29.86 in 10.0 mi North 23.0 mph 32.2 mph 0.01 in   Mostly Cloudy
3:55 PM 55.4 °F 42.8 °F 63% 29.87 in 10.0 mi North 15.0 mph - 0.02 in   Scattered Clouds
4:15 PM 60.8 °F 44.6 °F 55% 29.86 in 10.0 mi North 11.5 mph - N/A   Clear
4:35 PM 62.6 °F 39.2 °F 42% 29.86 in 10.0 mi North 21.9 mph 33.4 mph N/A   Clear
4:55 PM 64.4 °F 37.4 °F 37% 29.86 in 10.0 mi North 19.6 mph 26.5 mph N/A   Clear
5:15 PM 64.4 °F 37.4 °F 37% 29.87 in 10.0 mi NNW 15.0 mph - N/A   Clear
5:35 PM 66.2 °F 37.4 °F 35% 29.87 in 10.0 mi NNW 17.3 mph 24.2 mph N/A   Clear
5:55 PM 66.2 °F 35.6 °F 32% 29.87 in 10.0 mi NNW 20.7 mph 26.5 mph N/A   Clear
6:15 PM 64.4 °F 35.6 °F 34% 29.88 in 10.0 mi North 15.0 mph 23.0 mph N/A   Clear
6:35 PM 66.2 °F 35.6 °F 32% 29.88 in 10.0 mi North 16.1 mph - N/A   Clear
6:55 PM 64.4 °F 35.6 °F 34% 29.88 in 10.0 mi NNW 10.4 mph - N/A   Clear
7:15 PM 64.4 °F 35.6 °F 34% 29.88 in 10.0 mi North 8.1 mph - N/A   Clear
7:35 PM 62.6 °F 35.6 °F 37% 29.89 in 10.0 mi North 5.8 mph - N/A   Clear
7:55 PM 60.8 °F 35.6 °F 39% 29.89 in 10.0 mi NNE 3.5 mph - N/A   Clear
8:15 PM 60.8 °F 35.6 °F 39% 29.90 in 10.0 mi Calm Calm - N/A   Clear
8:35 PM 60.8 °F 33.8 °F 36% 29.90 in 10.0 mi Calm Calm - N/A   Clear
8:55 PM 55.4 °F 35.6 °F 47% 29.91 in 10.0 mi South 4.6 mph - N/A   Clear
9:15 PM 53.6 °F 35.6 °F 51% 29.92 in 10.0 mi SSW 6.9 mph - N/A   Clear
9:35 PM 53.6 °F 35.6 °F 51% 29.92 in 10.0 mi South 4.6 mph - N/A   Clear
9:55 PM 53.6 °F 33.8 °F 47% 29.93 in 10.0 mi South 6.9 mph - N/A   Clear
10:15 PM 51.8 °F 35.6 °F 54% 29.93 in 10.0 mi South 5.8 mph - N/A   Clear
10:35 PM 51.8 °F 33.8 °F 50% 29.93 in 10.0 mi SSW 8.1 mph - N/A   Clear
10:55 PM 48.2 °F 33.8 °F 58% 29.94 in 10.0 mi SSW 8.1 mph - N/A   Clear
11:15 PM 48.2 °F 33.8 °F 58% 29.93 in 10.0 mi South 6.9 mph - N/A   Clear
11:35 PM 48.2 °F 33.8 °F 58% 29.93 in 10.0 mi South 9.2 mph - N/A   Clear
11:55 PM 48.2 °F 33.8 °F 58% 29.93 in 10.0 mi South 8.1 mph - N/A   Clear